Find Starlink 31855

NORAD ID: 59838 Int'l Des: 2024-097 Owner: SPXS Country: US Constellation: starlink operational
LEOCIRCULAR

Current View

Loading 3D Globe...

About Starlink 31855

Starlink 31855 (NORAD 59838) is a starlink constellation satellite (v2 mini) launched May 23, 2024 by SPXS of US. It operates in LEO, CIRCULAR orbit with a mass of 730.00 kg.

About Starlink 31855

Description loading...

Upcoming Passes

Passes for default location (London). Set your location on the main map for personalized predictions.

Altitude History

Loading altitude history...

Two-Line Element Set

1 59838U 24097D 26170.71666523 .00024513 00000-0 89734-3 0 9996
2 59838 43.0004 57.8904 0001511 276.0400 84.0279 15.27579411117524
Epoch: Jun 19, 2026 • Age: 12 hours

Current Status

Altitude 491.9 km
Velocity 7.62 km/s
Sub-Earth Point -34.73°S, 16.26°E
Launch Date May 23, 2024
Age 2 years
Type internet

Technical Details

Classification Payload
Mass 730.00 kg
Dry Mass 700.00 kg
Total Mass 730.00 kg
Length 0.30 m
Diameter 4.10 m
Span 29.00 m
Shape Box + pan
Manufacturer SPXS
Bus Type Starlink V2M
Phase Status In Orbit
Owner/State SPXS/US

Most Searched